TAM4707 SBCG-SBCT

Flight info

Callsign TAM4707
Flight time N/A
Altitude 35000
Route POTLA UZ63 GEGOB
Aircraft A321/M-SDE3FGHIRWY/LB1

Departure

Time N/A
Airport Campo Grande Airport (SBCG)

Arrival

Time 2026-04-27 01:46
Airport Curitiba-Afonso Pena International Airport (SBCT)
Time Latitude Longitude Altitude Speed Heading
2026-04-27 01:38 -25.68563 -49.21020 9170 ft 288 kts 117°
2026-04-27 01:39 -25.69399 -49.18993 8938 ft 289 kts 117°
2026-04-27 01:39 -25.70239 -49.16960 8469 ft 288 kts 117°
2026-04-27 01:39 -25.71003 -49.15017 8261 ft 269 kts 110°
2026-04-27 01:39 -25.71327 -49.13029 7944 ft 257 kts 91°
2026-04-27 01:40 -25.71128 -49.11120 7576 ft 243 kts 73°
2026-04-27 01:40 -25.70500 -49.09438 7208 ft 233 kts 57°
2026-04-27 01:40 -25.69527 -49.08025 6770 ft 230 kts 39°
2026-04-27 01:40 -25.68370 -49.06800 6314 ft 230 kts 36°
2026-04-27 01:41 -25.67237 -49.05616 5945 ft 216 kts 32°
2026-04-27 01:41 -25.66000 -49.04949 5815 ft 186 kts
2026-04-27 01:41 -25.64777 -49.04940 5693 ft 169 kts 339°
2026-04-27 01:41 -25.63741 -49.05431 5594 ft 157 kts 317°
2026-04-27 01:42 -25.62951 -49.06243 5523 ft 155 kts 308°
2026-04-27 01:42 -25.62201 -49.07086 5369 ft 153 kts 308°
2026-04-27 01:42 -25.61460 -49.07916 5196 ft 149 kts 309°
2026-04-27 01:42 -25.60729 -49.08738 5019 ft 151 kts 308°
2026-04-27 01:43 -25.59987 -49.09571 4840 ft 151 kts 308°
2026-04-27 01:43 -25.59248 -49.10401 4641 ft 153 kts 310°
2026-04-27 01:43 -25.58746 -49.10964 4513 ft 156 kts 310°
2026-04-27 01:43 -25.57720 -49.12115 4240 ft 151 kts 311°
2026-04-27 01:44 -25.57236 -49.12657 4104 ft 147 kts 311°
2026-04-27 01:44 -25.56517 -49.13462 3900 ft 148 kts 312°
2026-04-27 01:44 -25.55788 -49.14280 3679 ft 151 kts 310°
2026-04-27 01:44 -25.55034 -49.15124 3473 ft 157 kts 308°
2026-04-27 01:45 -25.54262 -49.15991 3223 ft 157 kts 312°
2026-04-27 01:45 -25.53490 -49.16853 3024 ft 158 kts 313°
2026-04-27 01:45 -25.52792 -49.17640 2988 ft 115 kts 314°
2026-04-27 01:45 -25.52392 -49.18091 2994 ft 51 kts 315°
2026-04-27 01:46 -25.52253 -49.18213 2996 ft 5 kts 345°
2026-04-27 01:46 -25.52240 -49.18229 2996 ft 10 kts 299°
2026-04-27 01:46 -25.52250 -49.18279 2995 ft 5 kts 197°
2026-04-27 01:46 -25.52279 -49.18252 2996 ft 10 kts 119°
2026-04-27 01:47 -25.52312 -49.18182 2997 ft 10 kts 118°
2026-04-27 01:47 -25.52364 -49.18119 2995 ft 12 kts 135°
2026-04-27 01:47 -25.52427 -49.18051 2993 ft 13 kts 133°
2026-04-27 01:47 -25.52532 -49.18004 2992 ft 18 kts 176°
2026-04-27 01:48 -25.52650 -49.18001 2989 ft 17 kts 178°
2026-04-27 01:48 -25.52770 -49.17995 2985 ft 17 kts 177°
2026-04-27 01:48 -25.52839 -49.17965 2985 ft 8 kts 168°
2026-04-27 01:48 -25.52899 -49.17942 2985 ft 9 kts 148°
2026-04-27 01:49 -25.52943 -49.17903 2985 ft 7 kts 136°
2026-04-27 01:49 -25.52974 -49.17838 2985 ft 13 kts 101°
2026-04-27 01:49 -25.52978 -49.17747 2986 ft 11 kts 94°
2026-04-27 01:49 -25.52984 -49.17670 2988 ft 11 kts 100°
2026-04-27 01:50 -25.53023 -49.17603 2989 ft 9 kts 138°
2026-04-27 01:50 -25.53063 -49.17560 2991 ft 8 kts 135°
2026-04-27 01:50 -25.53095 -49.17526 2992 ft 6 kts 134°
2026-04-27 01:50 -25.53127 -49.17489 2992 ft 9 kts 134°
2026-04-27 01:51 -25.53170 -49.17439 2992 ft 9 kts 135°
2026-04-27 01:51 -25.53208 -49.17397 2993 ft 7 kts 134°
2026-04-27 01:51 -25.53241 -49.17360 2993 ft 7 kts 134°
2026-04-27 01:51 -25.53281 -49.17316 2994 ft 9 kts 136°
2026-04-27 01:52 -25.53331 -49.17259 2993 ft 14 kts 134°
2026-04-27 01:52 -25.53405 -49.17177 2991 ft 15 kts 135°
2026-04-27 01:52 -25.53484 -49.17139 2991 ft 10 kts 206°
2026-04-27 01:52 -25.53540 -49.17167 2992 ft 7 kts 200°
2026-04-27 01:53 -25.53565 -49.17182 2993 ft 2 kts 214°
2026-04-27 01:53 -25.53576 -49.17189 2993 ft 1 kts 209°
2026-04-27 01:53 -25.53586 -49.17196 2993 ft 0 kts 212°